Flag for Norway Weather past 2 weeks in Grimstad, Norway

Now
62 °F

Cool.


Feels Like: 62 °F
Forecast: 46 / 63 °F
Wind: 6 mph from East

Location: Torungen Fyr

Current Time: Aug 28, 2014 at 3:05:30 PM

Latest Report: Aug 28, 2014 at 2:00 PM


Visibility: N/A

Pressure: 29.99 "Hg

Humidity: 72%

Dew point: 53 °F

Location of GrimstadLocation

Historic Weather in Grimstad — Graph

°F

Grimstad temperature yesterday

Maximum temperature yesterday: 64 °F (at 9:00 PM)
Minimum temperature yesterday: 54 °F (at 7:00 AM)
Average temperature yesterday: 60 °F

Past Weeks' High & Low Weather Summary

 TemperatureHumidityPressure
High70 °F (Aug 16, 4:00 PM)96% (Aug 28, 2:00 AM)29.98 "Hg (Aug 28, 2:00 AM)
Low48 °F (Aug 24, 6:00 AM)40% (Aug 16, 6:00 PM)29.18 "Hg (Aug 18, 11:00 AM)
Average59 °F76%29.59 "Hg
* Reported Aug 13 1:00 PM — Aug 28 1:00 PM, Grimstad, Weather by CustomWeather, © 2014

Note: Actual official high and low records may vary slightly from our data, if they occured in-between our weather recording intervals... More about our weather records

Advertising

Grimstad weather history for previous 24 hours

 ConditionsComfort  
Time TempWeatherWind HumidityBarometerVisibility
1:00 PM
Aug 28
62 °FCool.9 mph74%29.98 "HgN/A
12:00 PM62 °FCool.8 mph74%29.98 "HgN/A
11:00 AM61 °FCool.9 mph75%29.98 "HgN/A
10:00 AM61 °FCool.9 mph78%29.97 "HgN/A
9:00 AM60 °FCool.7 mph83%29.97 "HgN/A
8:00 AM58 °FCool.6 mph84%29.96 "HgN/A
7:00 AM58 °FCool.6 mph88%29.96 "HgN/A
6:00 AM59 °FCool.6 mph93%29.94 "HgN/A
5:00 AM59 °FCool.7 mph93%29.94 "HgN/A
4:00 AM59 °FCool.5 mph94%29.94 "HgN/A
3:00 AM58 °FCool.7 mph94%29.94 "HgN/A
2:00 AM59 °FCool.8 mph96%29.93 "HgN/A
1:00 AM57 °FCool.6 mph94%29.93 "HgN/A
12:00 AM59 °FCool.2 mph88%29.93 "HgN/A
11:00 PM
Aug 27
61 °FCool.5 mph81%29.92 "HgN/A
10:00 PM62 °FMild.6 mph84%29.91 "HgN/A
9:00 PM64 °FMild.7 mph86%29.90 "HgN/A
7:00 PM63 °FMild.9 mph85%29.92 "HgN/A
6:00 PM62 °FCool.13 mph84%29.92 "HgN/A
5:00 PM62 °FCool.10 mph81%29.94 "HgN/A
4:00 PM63 °FMild.8 mph72%29.96 "HgN/A
3:00 PM63 °FMild.7 mph66%29.96 "HgN/A
Weather by CustomWeather, © 2014

See weather overviewHow to use our weather pages